Volver al catálogo

CZ-4 DEB

ActivoSSO
NORAD 35567·DEBRIS·🇨🇳 China

Lanzado Sep 19, 2007 desde Taiyuan Satellite Launch Center

Loading…

Próximos Pases (próximas 24 horas)

TLE

EnvejeciendoSource: Space-Track

Época: Sep 6, 2026, 14:23 UTC

1 35567U 07042G   26249.59964990  .00000424  00000-0  22420-3 0  9996
2 35567  98.8856 208.9546 0014275 321.2455  38.7696 14.19074563674339

Sigue CZ-4 DEB en tiempo real con AllMySat

Download on the App Store